Showing default

HULIANWANG DIGUI-155, 68129

Orbit data source: Space-Track

HULIANWANG DIGUI-155, 68129 is a payload satellite owned by Zhongguo Xingwang (CN) in LEO that was launched on Thu, 12 Mar 2026 UTC via a CHANG ZHENG 8A launch vehicle from the Wenchang Satellite Launch Center (WSC). Payload-class satellites include a variety of spacecraft equipped with specific instruments for various scientific and technological missions. These include communications satellites like Starlink; space stations such as the ISS; scientific satellites like the Hubble; Earth observation satellites from companies like Planet Labs, Umbra, and HawkEye 360; GPS; miniature CubeSats for education and research; and military/defense satellites.

Loading next visibility...
Identifier
68129, 2026-047A
Orbit
LEO
Country
Flag of CNCN / PRC
Related business
Manufacturer
CAST?
Mission
Operational spacecraft
Bus & Motor
XINGWANG C, Unknown motor
Mass
~700 kg wet, ~700 kg dry
Launch date (UTC)
2026-03-12 (1 month ago)
Launch vehicle
CHANG ZHENG 8A
Launch site
Wenchang Satellite Launch Center (WSC)
Object type
Payload
Rocket body
Debris
Shape & HBR
Unknown
Radar Cross Section
RCS unknown

Expand to show TLE details & history
Last TLE update: 14 hours ago

TLE from 14 hours ago
0 HULIANWANG DIGUI-155
1 68129U 26047A   26105.00802617 -.00000128  00000-0  10906-4 0  9995
2 68129  50.0020 285.5662 0001205 165.2202 194.8721 13.65303873  4628
Epoch: 2026-04-15T00:11Z
TLE epoch observation values (Epoch: 2026-04-15T00:11:33.461Z)
Latitude
-0.00001°
Longitude
79.50067°
Altitude
1,017.855 km
Speed
7.344 km/s
True Right ascension
19h 02m 15s
True Declination
0° 00' 00"
Sunlit
Object was in daylight at epoch
Visualization orbit readout
Latitude
Unknown
Longitude
Unknown
Altitude
Unknown
Speed
Unknown
Apparent Right ascension
Unknown
Apparent Declination
Unknown
Sunlit
N/A
Visualization observer readout
Local Sidereal Time
20:34:29
Azimuth
Unknown
Elevation
Unknown
Doppler factor
Unknown
Orbital elements
Apogee altitude
1,018.088 km
Perigee altitude
1,016.305 km
Semi-major axis
7,395.334 km
Eccentricity
0.00012
Inclination
50.002°
RAAN
285.5662°
Arg. of periapsis
165.2202°
True anomaly
194.86856°
Mean anomaly
194.8721°
Eccentric anomaly
194.87033°
Mean motion
3.41277 °/min
Orbital period
105.49 mins
BSTAR
0.000010906
Loading maneuver chart data...
Computing Atmospheric mass density...
Loading historical data...
Loading historical data...
Loading historical data...
Loading historical data...
Loading historical data...
Loading historical data...
Loading historical data...

Documentation

Showing up to 5 results
|